Regional Weather Roundup
Issued by NWS Green Bay, WI

Home | Current Version | Previous Version | Graphics & Text | Print | Product List | Glossary On
Versions: 1 2 3 4 5 6 7 8 9 10 11 12 13 14 15 16 17 18 19 20 21 22 23 24 25 26 27 28 29 30 31 32 33 34 35 36 37 38 39 40 41 42 43 44 45 46 47 48 49 50
000
ASUS43 KGRB 010611
RWRGRB

NORTH-CENTRAL AND NORTHEAST WISCONSIN REGIONAL WEATHER ROUNDUP
NATIONAL WEATHER SERVICE GREEN BAY WI
100 AM CDT TUE SEP 01 2015

WIZ005-009-010>012-018-019-010700-
NORTH CENTRAL WISCONSIN

CITY           SKY/WX    TMP DP  RH WIND       PRES   REMARKS
IRONWOOD       FAIR      72  70  94 SW10      29.90S
MANITOWISH WTR FAIR      68  68 100 S7        29.98S
ARBOR VITAE    FAIR      72  70  93 S8        29.99S
EAGLE RIVER    FAIR      67  67  98 SW7       29.99S
LAND O LAKES   FAIR      66  65  97 CALM      30.00S FOG
RHINELANDER    FAIR      69  66  90 SW8       30.01S
PHILLIPS       FAIR      69  68  97 S6        29.97S
ANTIGO         FAIR      67  66  97 SW8       30.02S
TOMAHAWK       FAIR      66  65  97 CALM      30.00F FOG
MERRILL          N/A     61  61 100 CALM      30.00S FOG
$$

WIZ013-073-010700-
NORTHEAST WISCONSIN

CITY           SKY/WX    TMP DP  RH WIND       PRES   REMARKS
IRON MOUNTAIN  FAIR      65  64  97 SE3       29.97S FOG
MARINETTE      FAIR      66  63  88 SW6       29.98S
OCONTO         FAIR      65  65 100 CALM      29.99S
$$

WIZ017-030-035>037-045-010700-
CENTRAL WISCONSIN

CITY           SKY/WX    TMP DP  RH WIND       PRES   REMARKS
MEDFORD        FAIR      66  66  99 S6        30.00S FOG
WAUSAU         FAIR      68  66  93 S5        29.99S FOG
MOSINEE        FAIR      64  64 100 S6        30.01S FOG
MARSHFIELD     FAIR      66  63  90 S7        30.00S FOG
WISC RAPIDS    FAIR      69  65  86 S5        30.01S
STEVENS POINT  FAIR      64  64  97 CALM      30.01S FOG
WAUPACA        FOG       66  65  97 CALM      30.01S VSB 1
SHAWANO        FAIR      69  67  93 CALM      30.00R FOG
CLINTONVILLE   FOG       63  63 100 CALM      30.00S VSB<1/4
WAUTOMA        FOG       63  63 100 CALM      30.01S VSB 1/4
$$

WIZ038-039-048-051-010700-
FOX VALLEY

CITY           SKY/WX    TMP DP  RH WIND       PRES   REMARKS
NWS GREEN BAY  FAIR      68  66  93 S6        30.01R FOG
APPLETON       FAIR      66  64  94 S5        30.00S FOG
OSHKOSH        FAIR      68  66  93 S6        30.01S
FOND DU LAC    FAIR      68  66  93 S6        30.02S FOG
$$

WIZ022-050-052-010700-
EAST CENTRAL WISCONSIN

CITY           SKY/WX    TMP DP  RH WIND       PRES   REMARKS
EPHRAIM        FAIR      62  62  97 S7        29.99S FOG
STURGEON BAY   FAIR      64  63  94 S9        30.02S
MANITOWOC      FAIR      57  56  96 MISG      30.03R FOG
SHEBOYGAN      FAIR      62  61  96 CALM      30.03S FOG
$$

LMZ563-521-522-541>543-010700-
LAKESHORE

STATION/POSITION TIME  TEMP    WIND        PRES    VSBY  WAVE
                       AIR SEA DIR/SP/G                  HT/PER
                 (UTC) (F)     (DEG/KT/KT) (MB)    (MI)  (FT/S)
SHEBOYGAN LKSHOR 0600   62     190/  8/  9 1016.9S
KEWAUNEE LKSHORE 0500          170/  3/  4 1015.3
NORTHPORT PIER   0500   63     160/  5/  7 1015.6R
N MID LAKE BUOY  0550   64 65  210/ 16/ 17 1015.4S         3/ 4
S GREEN BAY BUOY 0600   67 64  180/ 10/ 12 1017.0S
CHAMBERS ISLAND  0500   69     180/  3/ 10 1015.2F
MENOMINEE LKSHOR 0500          170/  7/  8 1014.2
$$


USA.gov is the U.S. government's official web portal to all federal, state and local government web resources and services.